When you browse on this site, cookies collect data to enhance your experience and personalize the content and advertising you see.
Visit our Privacy Policy to learn more. By continuing to use the site, you agree to this use of cookies and data.
  • In Denmark
  • List of Countries
  • For 7 days
  • Water Temperature
  • Satellite Maps
  • Weather Map
  • Weather Widgets
  • user-avatar
    Login

    Hourly Weather Beriktas

    Today, 18 December, Tuesday

    Time Temperature Precipitation Wind Pressure Humidity
    00:00 -4°C° 0 mm 3 mps 656 mmHg 65%
    01:00 -4°C° 0 mm 3 mps 656 mmHg 64%
    02:00 -4°C° 0 mm 3 mps 655 mmHg 64%
    03:00 -2°C° 0 mm 3 mps 655 mmHg 64%
    04:00 -3°C° 0 mm 4 mps 655 mmHg 65%
    05:00 -5°C° 0 mm 3 mps 654 mmHg 64%
    06:00 -4°C° 0.1 mm 3 mps 654 mmHg 67%
    07:00 -3°C° 0.1 mm 2 mps 654 mmHg 71%
    08:00 -3°C° 0.1 mm 2 mps 654 mmHg 74%
    09:00 -3°C° 0.5 mm 2 mps 655 mmHg 79%
    10:00 -3°C° 0.5 mm 2 mps 655 mmHg 84%
    11:00 -2°C° 0 mm 2 mps 655 mmHg 89%
    12:00 -2°C° 1.3 mm 3 mps 656 mmHg 91%
    13:00 -3°C° 1.3 mm 4 mps 656 mmHg 92%
    14:00 -3°C° 1.3 mm 4 mps 657 mmHg 94%
    15:00 -4°C° 0.6 mm 4 mps 657 mmHg 93%
    16:00 -5°C° 0.6 mm 4 mps 658 mmHg 92%
    17:00 -8°C° 0 mm 4 mps 658 mmHg 90%
    18:00 -9°C° 0 mm 4 mps 657 mmHg 84%
    19:00 -10°C° 0 mm 4 mps 657 mmHg 79%
    20:00 -12°C° 0 mm 3 mps 656 mmHg 74%
    21:00 -12°C° 0 mm 3 mps 656 mmHg 69%
    22:00 -12°C° 0 mm 3 mps 656 mmHg 64%
    23:00 -12°C° 0 mm 3 mps 656 mmHg 60%

    Tomorrow, 19 December, Wednesday

    Time Temperature Precipitation Wind Pressure Humidity
    00:00 -12°C° 0 mm 3 mps 656 mmHg 60%
    01:00 -10°C° 0 mm 3 mps 656 mmHg 60%
    02:00 -10°C° 0 mm 3 mps 656 mmHg 61%
    03:00 -10°C° 0 mm 3 mps 656 mmHg 62%
    04:00 -12°C° 0 mm 3 mps 656 mmHg 63%
    05:00 -12°C° 0 mm 3 mps 656 mmHg 64%
    06:00 -12°C° 0 mm 3 mps 656 mmHg 65%
    07:00 -12°C° 0 mm 3 mps 656 mmHg 65%
    08:00 -10°C° 0 mm 2 mps 657 mmHg 66%
    09:00 -8°C° 0 mm 2 mps 657 mmHg 67%
    10:00 -7°C° 0 mm 2 mps 658 mmHg 68%
    11:00 -5°C° 0 mm 2 mps 658 mmHg 69%
    12:00 -3°C° 0 mm 1 mps 658 mmHg 71%
    13:00 -4°C° 0 mm 1 mps 658 mmHg 73%
    14:00 -4°C° 0 mm 1 mps 658 mmHg 74%
    15:00 -6°C° 0 mm 1 mps 658 mmHg 71%
    16:00 -7°C° 0 mm 1 mps 658 mmHg 67%
    17:00 -9°C° 0 mm 2 mps 657 mmHg 63%
    18:00 -9°C° 0 mm 2 mps 658 mmHg 60%
    19:00 -9°C° 0 mm 2 mps 658 mmHg 57%
    20:00 -9°C° 0 mm 2 mps 658 mmHg 54%
    21:00 -9°C° 0 mm 2 mps 658 mmHg 54%
    22:00 -9°C° 0 mm 2 mps 658 mmHg 53%
    23:00 -9°C° 0 mm 2 mps 658 mmHg 53%

    Day after tomorrow, 20 December, Thursday

    Time Temperature Precipitation Wind Pressure Humidity
    00:00 -9°C° 0 mm 2 mps 659 mmHg 55%
    01:00 -9°C° 0 mm 2 mps 659 mmHg 56%
    02:00 -9°C° 0 mm 2 mps 659 mmHg 58%
    03:00 -9°C° 0 mm 2 mps 660 mmHg 60%
    04:00 -10°C° 0 mm 2 mps 660 mmHg 63%
    05:00 -10°C° 0 mm 2 mps 660 mmHg 65%
    06:00 -10°C° 0 mm 2 mps 660 mmHg 66%
    07:00 -10°C° 0 mm 2 mps 661 mmHg 67%
    08:00 -10°C° 0 mm 2 mps 661 mmHg 68%
    09:00 -9°C° 0 mm 2 mps 662 mmHg 70%
    10:00 -7°C° 0 mm 1 mps 662 mmHg 71%
    11:00 -4°C° 0 mm 1 mps 663 mmHg 73%
    12:00 -6°C° 0 mm 1 mps 663 mmHg 76%
    13:00 -7°C° 0 mm 2 mps 663 mmHg 79%
    14:00 -7°C° 0 mm 2 mps 662 mmHg 82%
    15:00 -8°C° 0 mm 2 mps 662 mmHg 78%
    16:00 -10°C° 0 mm 2 mps 662 mmHg 74%
    17:00 -12°C° 0 mm 2 mps 662 mmHg 71%
    18:00 -13°C° 0 mm 2 mps 662 mmHg 66%
    19:00 -13°C° 0 mm 2 mps 662 mmHg 62%
    20:00 -13°C° 0 mm 2 mps 662 mmHg 58%
    21:00 -13°C° 0 mm 2 mps 662 mmHg 59%
    22:00 -13°C° 0 mm 2 mps 663 mmHg 60%
    23:00 -14°C° 0 mm 2 mps 663 mmHg 61%

    21 December, Friday

    Time Temperature Precipitation Wind Pressure Humidity
    00:00 -14°C° 0 mm 2 mps 663 mmHg 62%
    01:00 -14°C° 0 mm 2 mps 663 mmHg 64%
    02:00 -14°C° 0 mm 2 mps 663 mmHg 65%
    03:00 -14°C° 0 mm 2 mps 663 mmHg 65%
    04:00 -14°C° 0 mm 2 mps 663 mmHg 66%
    05:00 -14°C° 0 mm 2 mps 663 mmHg 67%
    06:00 -14°C° 0 mm 2 mps 663 mmHg 66%
    07:00 -14°C° 0 mm 2 mps 663 mmHg 66%
    08:00 -14°C° 0 mm 2 mps 663 mmHg 66%
    09:00 -12°C° 0 mm 2 mps 663 mmHg 66%
    10:00 -10°C° 0 mm 2 mps 663 mmHg 66%
    11:00 -7°C° 0 mm 1 mps 664 mmHg 66%
    12:00 -7°C° 0 mm 1 mps 663 mmHg 68%
    13:00 -7°C° 0 mm 1 mps 663 mmHg 70%
    14:00 -7°C° 0 mm 1 mps 662 mmHg 72%
    15:00 -9°C° 0 mm 2 mps 662 mmHg 68%
    16:00 -10°C° 0 mm 2 mps 661 mmHg 65%
    17:00 -13°C° 0 mm 3 mps 660 mmHg 62%
    18:00 -13°C° 0 mm 3 mps 660 mmHg 60%
    19:00 -13°C° 0 mm 3 mps 660 mmHg 58%
    20:00 -14°C° 0 mm 4 mps 660 mmHg 56%
    21:00 -14°C° 0 mm 4 mps 659 mmHg 55%
    22:00 -14°C° 0 mm 4 mps 659 mmHg 53%
    23:00 -12°C° 0 mm 4 mps 658 mmHg 52%

    22 December, Saturday

    Time Temperature Precipitation Wind Pressure Humidity
    00:00 -12°C° 0 mm 4 mps 658 mmHg 51%
    01:00 -12°C° 0 mm 4 mps 657 mmHg 50%
    02:00 -12°C° 0 mm 4 mps 657 mmHg 48%
    03:00 -12°C° 0 mm 4 mps 656 mmHg 47%
    04:00 -12°C° 0 mm 4 mps 656 mmHg 46%
    05:00 -12°C° 0 mm 4 mps 656 mmHg 45%
    06:00 -12°C° 0 mm 4 mps 656 mmHg 44%
    07:00 -11°C° 0 mm 4 mps 656 mmHg 44%
    08:00 -11°C° 0 mm 4 mps 656 mmHg 44%
    09:00 -9°C° 0 mm 3 mps 656 mmHg 48%
    10:00 -7°C° 0 mm 3 mps 656 mmHg 52%
    11:00 -5°C° 0 mm 3 mps 656 mmHg 56%
    12:00 -4°C° 0 mm 2 mps 656 mmHg 56%
    13:00 -4°C° 0 mm 2 mps 656 mmHg 56%
    14:00 -4°C° 0 mm 2 mps 655 mmHg 56%
    15:00 -5°C° 0 mm 2 mps 655 mmHg 51%
    16:00 -6°C° 0 mm 2 mps 655 mmHg 46%
    17:00 -8°C° 0 mm 3 mps 655 mmHg 40%
    18:00 -8°C° 0 mm 3 mps 655 mmHg 40%
    19:00 -8°C° 0 mm 3 mps 655 mmHg 40%
    20:00 -8°C° 0 mm 3 mps 655 mmHg 39%
    21:00 -7°C° 0 mm 3 mps 655 mmHg 42%
    22:00 -7°C° 0 mm 3 mps 655 mmHg 45%
    23:00 -7°C° 0 mm 3 mps 655 mmHg 48%

    23 December, Sunday

    Time Temperature Precipitation Wind Pressure Humidity
    00:00 -6°C° 0.1 mm 3 mps 655 mmHg 55%
    01:00 -6°C° 0.1 mm 3 mps 655 mmHg 62%
    02:00 -5°C° 0.1 mm 3 mps 655 mmHg 69%
    03:00 -5°C° 0.2 mm 3 mps 655 mmHg 72%
    04:00 -4°C° 0.2 mm 2 mps 655 mmHg 76%
    05:00 -4°C° 0.2 mm 2 mps 654 mmHg 79%
    06:00 -4°C° 0.2 mm 2 mps 654 mmHg 80%
    07:00 -3°C° 0.2 mm 2 mps 654 mmHg 81%
    08:00 -3°C° 0.2 mm 2 mps 655 mmHg 82%
    09:00 -3°C° 0.2 mm 2 mps 655 mmHg 82%
    10:00 -2°C° 0.2 mm 3 mps 655 mmHg 82%
    11:00 -2°C° 0.2 mm 3 mps 655 mmHg 82%
    12:00 -2°C° 0.4 mm 2 mps 655 mmHg 84%
    13:00 -2°C° 0.4 mm 2 mps 655 mmHg 85%
    14:00 -2°C° 0.4 mm 2 mps 655 mmHg 87%
    15:00 -2°C° 0.7 mm 2 mps 655 mmHg 89%
    16:00 -4°C° 0.7 mm 3 mps 655 mmHg 90%
    17:00 -4°C° 0.7 mm 3 mps 655 mmHg 92%
    18:00 -5°C° 0.5 mm 3 mps 656 mmHg 93%
    19:00 -5°C° 0.5 mm 3 mps 656 mmHg 93%
    20:00 -5°C° 0.5 mm 3 mps 656 mmHg 94%
    21:00 -5°C° 0.2 mm 2 mps 656 mmHg 94%
    22:00 -5°C° 0.2 mm 2 mps 656 mmHg 94%
    23:00 -6°C° 0.2 mm 2 mps 657 mmHg 94%
    Show more